Regional Weather Roundup
Issued by NWS

Home | Current Version | Previous Version | Graphics & Text | Print | Product List | Glossary On
Versions: 1 2 3 4 5 6 7 8 9 10 11 12 13 14 15 16 17 18 19 20 21 22 23 24 25 26 27 28 29 30 31 32 33 34 35 36 37 38 39 40 41 42 43 44 45 46 47 48 49 50
000
ASUS43 KMKX 020221
RWRWI

WISCONSIN REGIONAL WEATHER ROUNDUP
NATIONAL WEATHER SERVICE MILWAUKEE/SULLIVAN WI
900 PM CDT WED JUL 01 2015

NOTE: "FAIR" INDICATES FEW OR NO CLOUDS BELOW 12,000 FEET WITH NO
SIGNIFICANT WEATHER AND/OR OBSTRUCTIONS TO VISIBILITY.

WIZ001-002-006>008-014>016-023>028-020300-
NORTHWEST WISCONSIN

CITY           SKY/WX    TMP DP  RH WIND       PRES   REMARKS
SUPERIOR ARPT  PTCLDY    58  55  87 NE5       30.00S
ASHLAND        CLEAR     55  49  80 E3        30.02R
HAYWARD        CLEAR     63  57  81 CALM      30.02R
SIREN          CLEAR     65  55  69 CALM      30.01R
CUMBERLAND     CLEAR     64  52  63 CALM      30.01S
RICE LAKE      CLEAR     64  55  72 CALM      30.02S
CHETEK         CLEAR     66  55  68 N3        30.01S
LADYSMITH      CLEAR     61  53  73 N5        30.03S
EAU CLAIRE     CLEAR     65  54  67 CALM      29.99S
MENOMONIE      CLEAR     67  52  57 CALM      30.00S
NEW RICHMOND   CLEAR     65  55  69 CALM      30.01S
OSCEOLA        CLEAR     65  59  80 CALM      30.03R
$$

WIZ003>005-009-010-017-018-020300-
NORTH CENTRAL WISCONSIN

CITY           SKY/WX    TMP DP  RH WIND       PRES   REMARKS
MANITOWISH WTR CLEAR     56  47  71 CALM      30.04R
ARBOR VITAE    PTCLDY    62  47  59 N3        30.03R
WOODRUFF       PTCLDY    62  47  59 N3        30.03R
RHINELANDER    CLEAR     55  49  80 CALM      30.03R
EAGLE RIVER    CLEAR     57  45  62 N3        30.03R
LAND O LAKES   CLEAR     58  47  67 N5        30.04R
PHILLIPS       CLEAR     58  49  72 CALM      30.02R
TOMAHAWK       CLEAR     54  50  84 CALM      30.02S FOG
MEDFORD        CLEAR     57  50  78 CALM      30.01S
MERRILL        CLEAR     58  49  70 CALM      30.02S
$$

WIZ029-030-035-036-043>047-020300-
CENTRAL WISCONSIN

CITY           SKY/WX    TMP DP  RH WIND       PRES   REMARKS
WAUSAU         CLEAR     66  45  46 N5        29.99R
MOSINEE        CLEAR     66  43  42 N5        30.01R
MARSHFIELD     CLEAR     62  47  57 CALM      30.00R
STEVENS POINT  CLEAR     61  50  66 CALM      30.01R
WAUPACA        CLEAR     62  52  70 CALM      30.00R
WAUTOMA        CLEAR     61  55  80 CALM      30.00R
WISC RAPIDS    CLEAR     60  52  74 CALM      30.00S
CAMP DOUGLAS   PTCLDY    55  55 100 CALM      29.99S
$$

WIZ011>013-019>022-031-037>040-048>050-020300-
NORTHEAST WISCONSIN

CITY           SKY/WX    TMP DP  RH WIND       PRES   REMARKS
ANTIGO         CLEAR     58  50  76 N5        30.02S
SHAWANO        CLEAR     61  51  69 CALM      30.01R
OCONTO         CLEAR     60  46  59 E3        30.01S
STURGEON BAY   CLEAR     55  45  67 E5        30.05R
GREEN BAY      CLEAR     60  54  80 E6        30.01R
MANITOWOC      CLEAR     55  52  89 MISG      30.03R
APPLETON       PTCLDY    61  50  67 CALM      30.00R
CLINTONVILLE   CLEAR     61  52  72 E7        30.00R
OSHKOSH        CLEAR     61  52  72 CALM      29.99S
$$

WIZ032>034-041-042-053>061-020300-
SOUTHWEST WISCONSIN

CITY           SKY/WX    TMP DP  RH WIND       PRES   REMARKS
LA CROSSE      CLEAR     64  54  69 CALM      29.99R
SPARTA         CLEAR     59  52  76 CALM      30.01R
VIROQUA        CLEAR     60  52  76 W3        30.01S
BOSCOBEL       CLEAR     57  54  89 CALM      30.00R
PRAIRIE DU CHI PTCLDY    60  55  83 CALM      29.99S
PLATTEVILLE    MOCLDY    62  54  76 CALM      29.99F
$$

WIZ056-057-062-063-064-067-068-020300-
SOUTH CENTRAL WISCONSIN

CITY           SKY/WX    TMP DP  RH WIND       PRES   REMARKS
REEDSBURG      CLEAR     63  53  68 CALM      29.99R
BARABOO/DELLS  CLEAR     59  52  79 E5        30.00R
LONE ROCK      CLEAR     59  54  83 CALM      30.00R
MINERAL POINT  CLEAR     61  50  67 N3        30.00S
MADISON        PTCLDY    61  52  72 CALM      29.99R
MIDDLETON      CLEAR     60  57  88 CALM      30.00S
WATERTOWN      CLEAR     56  56 100 E6        30.01R
MONROE         PTCLDY    61  54  77 N5        29.99S
JANESVILLE     CLEAR     61  55  82 E6        29.99R
$$

WIZ051-052-058>065-066-070>072-020300-
SOUTHEAST WISCONSIN

CITY           SKY/WX    TMP DP  RH WIND       PRES   REMARKS
MILWAUKEE      PTCLDY    54  48  80 NE3       30.03R
WAUKESHA       PTCLDY    54  48  82 CALM      30.03R
MILWAUKEE/TIMM CLEAR     54  48  82 CALM      30.03R
RACINE         MOCLDY    55  49  80 CALM      30.03R
BURLINGTON     PTCLDY    53  49  89 CALM      30.01S
KENOSHA        MOCLDY    54  50  86 NE7       30.00F
FOND DU LAC    CLEAR     59  55  87 S5        30.00S
SHEBOYGAN      CLEAR     52  49  89 CALM      30.02R
WEST BEND      CLEAR     54  52  94 S5        30.02R
JUNEAU         CLEAR     57  53  87 SE5       30.02S
$$

LSZ147-162-020300-
LAKE SUPERIOR

STATION/POSITION TIME  TEMP    WIND        PRES    WAVE
                       AIR SEA DIR/SP/G            HT/PER
                 (UTC) (F)     (DEG/KT/KT) (MB)    (FT/S)
W MID LAKE BUOY  0150   46 39   70/  2/  2 1016.8S   0
DEVILS ISLAND    0200   60     150/  7/  8 1016.3R
SAXON HARBOR     0140   57        CALM     1015.9S
$$

LMZ867-665-643>646-020300-
LAKE MICHIGAN

STATION/POSITION TIME  TEMP    WIND        PRES    WAVE
                       AIR SEA DIR/SP/G            HT/PER
                 (UTC) (F)     (DEG/KT/KT) (MB)    (FT/S)
CHAMBERS ISLAND  0100   63      30/ 17/ 19 1015.6S
S GREEN BAY BUOY 0100   65 68   60/ 12/ 16 1017.0R
N MID LAKE BUOY  0150   49 42   10/  4/  6 1016.3R   1
NORTHPORT PIER   0100   61      20/  9/ 11 1015.9R
SISTER BAY       0144   58        CALM       N/A
ALGOMA LAKESHORE 0140             CALM       N/A
KEWAUNEE LAKESHO 0100   57     190/  1/  3 1015.5R
SHEBOYGAN LAKESH 0200   55     110/  2/  2 1016.9R
PORT WASHINGTON  0100   57      80/  2/  3 1016.9
ATWATER BUOY     0200   56     360/  6/  8 1017.8R
MILWAUKEE LAKESH 0200   56      40/  4/  5   N/A
KENOSHA   LAKESH 0200   56      20/ 12/ 13 1015.9F
$$

TC  - TEMPERATURE IN CELSIUS
VSB - VISIBILITY IN STATUTE MILES
WCI - WIND CHILL INDEX
HX  - HEAT INDEX



USA.gov is the U.S. government's official web portal to all federal, state and local government web resources and services.